Retour au catalogue

STARLINK-32521

ActifCommunicationsVLEO
NORAD 62117·PAYLOAD·🇺🇸 United States

Lancé Nov 27, 2024 depuis Cape Canaveral Space Force Station

Loading…

Prochains Passages (prochaines 24 heures)

TLE

FraisSource: CelesTrak SupGP

Époque: Sep 15, 2026, 02:28 UTC

1 62117C 24222D   26258.10326389  .00047040  00000+0  17037-2 0  2586
2 62117  43.0030 142.8375 0001399 277.5520 243.6023 15.27557032    17

Suivez STARLINK-32521 en temps réel avec AllMySat

Download on the App Store